Location: Bothwell
(41.7170°N, 112.2589°W)
Time: 00:11:43
(UTC+00:00)

Altair - Visible Passes

Search period start: 12 May 2026 00:00
Search period end: 22 May 2026 00:00
Orbit: 1501 x 1682 km, 47.2° (Epoch: 11 May)

Date Brightness Start Highest point End Pass type
(mag) Time Alt. Az. Time Alt. Az. Time Alt. Az.
13 May 8.6 11:32:38 10° SSW 11:41:31 40° SE 11:50:37 10° ENE visible
14 May 8.6 11:07:43 10° SSW 11:16:21 36° SE 11:25:13 10° ENE visible
15 May 8.7 10:42:50 10° S 10:51:12 33° SE 10:59:48 10° ENE visible
16 May 8.7 10:18:35 12° S 10:26:04 30° SE 10:34:21 10° ENE visible
17 May 8.8 09:54:45 15° S 10:00:56 28° SE 10:08:52 10° ENE visible
18 May 8.8 09:30:52 17° SSE 09:35:49 25° SE 09:43:21 10° ENE visible
18 May 7.8 11:29:37 10° SW 11:39:23 73° SSE 11:49:28 10° ENE visible
19 May 8.8 09:06:56 18° SSE 09:10:42 23° SE 09:17:47 10° E visible
19 May 7.8 11:04:56 12° SW 11:14:08 69° SE 11:24:09 10° ENE visible
20 May 8.9 08:42:56 18° SE 08:45:36 20° SE 08:52:09 10° E visible
20 May 7.8 10:40:56 16° SW 10:48:54 64° SE 10:58:50 10° ENE visible
21 May 8.9 08:18:53 17° SE 08:20:31 18° ESE 08:26:26 10° E visible
21 May 7.8 10:16:53 21° SSW 10:23:41 60° SE 10:33:30 10° ENE visible
